User: anonymous
Location: Bangkok
(13.7500°N, 100.5170°E)
Time: 23:23:52
(UTC+07:00)
Language:

SPOT 1/Viking Rocket - Orbit

View from above orbital plane
View from above orbital plane
View from above satellite
View from above satellite

Ground track
Ground track

The orbit data is extracted from the following two-line orbital elements,

1 16615U 86019C   14208.18288825  .00000066  00000-0  42106-4 0  4444
2 16615 098.7550 259.6179 0010750 266.0768 160.6698 14.31283775488414
Epoch (UTC): 27 July 2014 04:23:21
Eccentricity: 0.0010750
inclination: 98.7550°
perigee height: 780 km
apogee height: 795 km
right ascension of ascending node: 259.6179°
argument of perigee: 266.0768°
revolutions per day: 14.31283775
mean anomaly at epoch: 160.6698°
orbit number at epoch: 48841

The dashed part of the orbit path shows where the satellite is in the earth's shadow,  

DLR